(735) Marghanna
ephemeris date magn radius delta ra dec elong phase
Today16 Sep 202514.82.370 AU2.456 AU06h46m+32°02'73.2°24.0°
Opposition1 Jan 202613.92.742 AU1.807 AU07h01m+45°06'157.7°7.8°
(735) Marghanna - 2025-09-16
astro.vanbuitenen.nl


 
-1 year
-1 month
-1 day
Now
+1 day
+1 month
+1 year

The interactive orbit chart above shows the body's path through the solar system and its position at the given date. Green and blue lines are shown perpendicular to the ecliptic plane: Green if the path is above the ecliptic plane, blue if it is below. (Left-click and drag to rotate the view; Right-click and drag to move the view; Use scroll wheel to zoom in our out.)

The orbital elements of Marghanna are:

            e (Eccentricity)                : 0.3204995
            a (Semimajor axis)              : 2.7298372
            i (Inclination)                 : 16.86686
            Ω (Longitude of ascending node) : 42.91612
            ω (Argument of perihelion)      : 310.00369
            M (Mean anomaly)                : 19.68859
            Epoch                           : 2025 May 05

            L (Longitude of perihelion)     : -5.83527
            B (Latitude of perihelion)      : -12.84150
            P (Orbital period in years)     : 4.51            
        

The light curve chart below shows the estimated development of the minor planet's magnitude.


The all-sky chart below shows the path of the minor planet over the same period as the light curve. The current position is marked yellow.





The following chart shows the path of the minor planet in the next few days. The field of view is optimized for (~10x50) binoculars and finderscopes. A more printer-friendly version of the same chart can be found below.




Ephemerides:
Date       Time       RA (2000)    DEC (2000)    delta   radius  elong  phase   PA    magn
2025-09-16 00:00 UT   06 46 49.6   +32 02 19     2.456    2.370   73.2   24.0   277   14.8 
2025-09-16 09:45 UT   06 47 26.8   +32 04 21     2.452    2.371   73.5   24.0   277   14.8 
2025-09-17 00:00 UT   06 48 20.9   +32 07 20     2.447    2.373   73.9   24.0   277   14.8 
2025-09-18 00:00 UT   06 49 51.3   +32 12 21     2.439    2.377   74.5   24.0   278   14.8 
2025-09-19 00:00 UT   06 51 20.8   +32 17 24     2.430    2.380   75.2   24.1   278   14.8 
2025-09-20 00:00 UT   06 52 49.4   +32 22 27     2.421    2.384   75.9   24.1   278   14.8 
2025-09-21 00:00 UT   06 54 17.0   +32 27 33     2.412    2.387   76.5   24.1   278   14.8 
2025-09-22 00:00 UT   06 55 43.6   +32 32 39     2.404    2.391   77.2   24.2   278   14.8 
2025-09-23 00:00 UT   06 57 09.2   +32 37 48     2.395    2.394   77.9   24.2   278   14.8 
2025-09-24 00:00 UT   06 58 33.8   +32 42 58     2.386    2.398   78.6   24.2   278   14.8 
2025-09-25 00:00 UT   06 59 57.3   +32 48 10     2.377    2.402   79.2   24.2   278   14.8 
2025-09-26 00:00 UT   07 01 19.8   +32 53 24     2.368    2.405   79.9   24.2   278   14.8 
2025-09-27 00:00 UT   07 02 41.3   +32 58 41     2.359    2.409   80.6   24.2   278   14.8 
2025-09-28 00:00 UT   07 04 01.6   +33 04 00     2.350    2.412   81.3   24.3   278   14.8 
2025-09-29 00:00 UT   07 05 20.9   +33 09 22     2.341    2.416   82.0   24.3   278   14.8 
2025-09-30 00:00 UT   07 06 39.0   +33 14 46     2.332    2.419   82.7   24.2   278   14.8 
2025-10-01 00:00 UT   07 07 56.0   +33 20 14     2.323    2.423   83.5   24.2   278   14.8 
2025-10-02 00:00 UT   07 09 11.8   +33 25 44     2.314    2.426   84.2   24.2   278   14.8 
2025-10-03 00:00 UT   07 10 26.5   +33 31 17     2.305    2.430   84.9   24.2   278   14.8 
2025-10-04 00:00 UT   07 11 40.0   +33 36 54     2.296    2.433   85.6   24.2   278   14.8 
2025-10-05 00:00 UT   07 12 52.3   +33 42 34     2.286    2.437   86.4   24.2   278   14.8 
2025-10-06 00:00 UT   07 14 03.4   +33 48 18     2.277    2.440   87.1   24.2   278   14.8 
2025-10-07 00:00 UT   07 15 13.2   +33 54 05     2.268    2.444   87.8   24.1   278   14.7 
2025-10-08 00:00 UT   07 16 21.7   +33 59 57     2.259    2.447   88.6   24.1   278   14.7 
2025-10-09 00:00 UT   07 17 29.0   +34 05 52     2.250    2.451   89.3   24.1   278   14.7 
2025-10-10 00:00 UT   07 18 35.0   +34 11 52     2.241    2.454   90.1   24.0   278   14.7 
2025-10-11 00:00 UT   07 19 39.6   +34 17 55     2.231    2.458   90.8   24.0   278   14.7 
2025-10-12 00:00 UT   07 20 42.9   +34 24 03     2.222    2.461   91.6   23.9   278   14.7 
2025-10-13 00:00 UT   07 21 44.8   +34 30 16     2.213    2.465   92.4   23.9   278   14.7 
2025-10-14 00:00 UT   07 22 45.2   +34 36 33     2.204    2.468   93.1   23.8   278   14.7 
2025-10-15 00:00 UT   07 23 44.3   +34 42 56     2.194    2.472   93.9   23.7   277   14.7 
2025-10-16 00:00 UT   07 24 41.9   +34 49 23     2.185    2.475   94.7   23.7   277   14.7 


    Terminology:
            
    delta:  distance between minor planet and earth in AU
    radius: distance between minor planet and sun in AU
    magn:   magnitude (brightness) estimate    
    ra:     right ascension in hours (24h = 360deg)
    dec:    declination in degrees
    elong:  elongation in degrees (angle sun-earth-minor planet)    
    phase:  phase angle in degrees (angle sun-minor planet-earth)        
    AU:     Astronomical Unit (mean distance between earth and sun: 149597870.7 km
    

Orbital elements provided by the MPC (Minor Planet Center).
Calculations by a modified version of AAPlus, a C# implementation of the AA+ project by PJ Naughter from the algorithms presented in the book "Astronomical Algorithms" by Jean Meeus.
NGC2000 dso catalog and star labels from VizieR as provided by the Strasbourg astronomical Data Center.
Tycho2 catalog from the ESO archive.